Elmendorf AFB, AK

5:04 PM AKDT on October 22, 2017 (GMT -0800)
Elmendorf Air Force Base

Weather History for PAED - December, 2012

Change the Weather History Date:

Friday, December 21, 2012

  Actual Average Record
Temperature  
Mean Temperature -4 °F -  
Max Temperature 5 °F 18 °F 39 °F (1999)
Min Temperature -13 °F 6 °F -20 °F (1961)
Degree Days  
Heating Degree Days 69    
Moisture  
Dew Point -10 °F    
Average Humidity 78    
Maximum Humidity 83    
Minimum Humidity 73    
Precipitation  
Precipitation 0.00 in - - ()
Snow  
Snow 0.00 in - - ()
Snow Depth 10.00 in    
Sea Level Pressure  
Sea Level Pressure 30.04 in    
Wind  
Wind Speed 1 mph (East)    
Max Wind Speed 6 mph    
Max Gust Speed -    
Visibility 10 miles    
Events      
Averages and records for this station are not official NWS values.
T = Trace of Precipitation, MM = Missing Value Source: NWS Daily Summary

Daily Weather History Graph

Daily Weather History Graph

Search for Another Location

Airport or City:

Trip Planner

Search our weather history database for the weather conditions in past years. The results will help you decide how hot, cold, wet, or windy it might be!

Date:

Astronomy

Dec. 21, 2012 Rise Set
Actual Time 10:14 AM AKST 3:40 PM AKST
Civil Twilight 9:11 AM AKST 4:43 PM AKST
Nautical Twilight 8:11 AM AKST 5:43 PM AKST
Astronomical Twilight 7:18 AM AKST 6:37 PM AKST
Moon 12:45 PM AKST (12/21) 2:52 AM AKST (12/21)
Length of Visible Light 7h 31m
Length of Day
5h 26m
Waxing Gibbous, 66% of the Moon is Illuminated
Dec 21
Waxing Gibbous
Dec 28
Full
Jan 4
Last Quarter
Jan 11
New
Jan 18
First Quarter

Hourly Weather History & Observations

Time (AKST) Temp. Windchill Dew Point Humidity Pressure Visibility Wind Dir Wind Speed Gust Speed Precip Events Conditions
12:55 AM -4.5 °F - -9.6 °F 79% 30.09 in 10.0 mi Calm Calm - N/A   Clear
1:55 AM -4.0 °F - -9.6 °F 77% 30.10 in 10.0 mi Calm Calm - N/A   Clear
2:55 AM -4.7 °F -13.2 °F -9.9 °F 78% 30.10 in 10.0 mi East 3.5 mph - N/A   Clear
3:55 AM -9.8 °F -21.3 °F -15.0 °F 78% 30.09 in 10.0 mi East 4.6 mph - N/A   Clear
4:55 AM -4.0 °F -16.3 °F -8.9 °F 80% 30.09 in 10.0 mi ESE 5.8 mph - N/A   Clear
5:55 AM -13.7 °F -25.9 °F -20.0 °F 73% 30.10 in 10.0 mi ESE 4.6 mph - N/A   Clear
6:55 AM -8.7 °F - -14.4 °F 76% 30.09 in 10.0 mi Calm Calm - N/A   Clear
7:55 AM -9.2 °F -20.7 °F -15.0 °F 76% 30.09 in 10.0 mi East 4.6 mph - N/A   Clear
8:55 AM -7.4 °F - -13.0 °F 77% 30.08 in 10.0 mi Calm Calm - N/A   Clear
9:55 AM -9.9 °F - -15.7 °F 76% 30.09 in 10.0 mi Calm Calm - N/A   Clear
10:55 AM -9.0 °F - -14.6 °F 76% 30.08 in 10.0 mi Calm Calm - N/A   Clear
11:55 AM 3.0 °F - -1.3 °F 82% 30.07 in 10.0 mi Calm Calm - N/A   Clear
12:55 PM 5.4 °F - 1.2 °F 83% 30.06 in 10.0 mi Calm Calm - N/A   Clear
1:55 PM 2.3 °F - -2.4 °F 81% 30.05 in 10.0 mi Calm Calm - N/A   Clear
2:55 PM 4.5 °F - 0.3 °F 83% 30.04 in 10.0 mi Calm Calm - N/A   Clear
3:55 PM 3.7 °F - -0.6 °F 82% 30.03 in 10.0 mi Calm Calm - N/A   Clear
4:55 PM -1.1 °F - -6.9 °F 77% 30.01 in 10.0 mi Calm Calm - N/A   Clear
5:55 PM -4.2 °F - -10.1 °F 76% 30.00 in 10.0 mi Calm Calm - N/A   Clear
6:55 PM -3.8 °F - -9.2 °F 78% 29.98 in 10.0 mi Calm Calm - N/A   Clear
7:55 PM -11.0 °F - -16.8 °F 76% 29.97 in 10.0 mi Calm Calm - N/A   Clear
8:55 PM -8.0 °F - -13.4 °F 77% 29.96 in 10.0 mi Calm Calm - N/A   Clear
9:55 PM -9.4 °F - -14.8 °F 77% 29.95 in 10.0 mi Calm Calm - N/A   Clear
10:55 PM -8.1 °F - -13.4 °F 78% 29.95 in 10.0 mi Calm Calm - N/A   Clear
11:55 PM -12.5 °F - -18.2 °F 76% 29.94 in 10.0 mi Calm Calm - N/A   Clear